STARLINK-34758 (64945 NORAD) Tracking and Keplerian Element Data

This shows tracking and keplerian element data for the satellite.

Feedback or suggestion? Click here.




ElementValue
Catalog64945
NameSTARLINK-34758
Epoch Orbit2338
Epoch Day354.12039445
Epoch Year2025
RAAN215.6675
Inclination97.6006
Eccentricity0.0002045
Argument of Perigee81.5657
Mean Anonmoly278.5801
Mean Motion15.05649654
Decay Rate2.817E-05
L11 64945U 25158P 25354.12039445 .00002817 00000+0 19937-3 0 9995
L22 64945 97.6006 215.6675 0002045 81.5657 278.5801 15.05649654 23385



Live tracking and technical data element details for STARLINK-34758 (NORAD 64945). STARLINK-34758 can be tracked NOW for your location showing map with azimuth and elevation plus other details from your city location.







IsCatalogInMostPopularTable: catalog: 64945, numindb: 5
Update: records affected: 1



GetName: 64945 STARLINK-34758

Hit Count: updated at: Sun, 08 Feb 2026 09:06:56 GMT